Private Wetterstation Wechselburg
Wetterdaten: Donnerstag, 17.12.2020
Datum Zeit Temp. +2m Bodentemp. Temp.+5cm Temp. Wind Windchill X Diff Temp. Feuchte +2m Feuchte +5cm Luftdruck Regen Wind Richtung Richtung Sonnenschein Taupunkt Windchill Windben
17.12.2020 00:00 6,0 C 7,0 C 4,9 C 6,0 C 6,0 C 0,0 C 84 % 89 % 1021,8 hPa 0,0 l/m 0,0 km/h (0 Bft) SW 225 0 min 3,5 C 6,0 C 0,0 km/h (0 Bft)
17.12.2020 00:05 5,9 C 7,1 C 4,7 C 5,8 C 5,7 C 0,0 C 84 % 89 % 1021,8 hPa 0,0 l/m 0,0 km/h (0 Bft) SW 225 0 min 3,4 C 5,7 C 0,0 km/h (0 Bft)
17.12.2020 00:10 5,8 C 7,1 C 4,4 C 5,7 C 5,4 C 0,0 C 84 % 89 % 1022,3 hPa 0,0 l/m 0,0 km/h (0 Bft) SW 225 0 min 3,3 C 5,4 C 0,0 km/h (0 Bft)
17.12.2020 00:15 5,7 C 7,0 C 4,3 C 5,5 C 5,1 C 0,0 C 84 % 89 % 1022,3 hPa 0,0 l/m 0,2 km/h (0 Bft) S 180 0 min 3,2 C 5,1 C 2,7 km/h (1 Bft)
17.12.2020 00:20 5,7 C 7,0 C 4,1 C 5,4 C 4,8 C 0,0 C 84 % 89 % 1022,3 hPa 0,0 l/m 0,2 km/h (0 Bft) S 180 0 min 3,2 C 4,8 C 0,0 km/h (0 Bft)
17.12.2020 00:25 5,5 C 7,0 C 3,7 C 5,2 C 4,5 C 0,0 C 84 % 90 % 1022,3 hPa 0,0 l/m 0,0 km/h (0 Bft) NO 45 0 min 3,0 C 4,5 C 0,0 km/h (0 Bft)
17.12.2020 00:30 5,3 C 7,0 C 3,6 C 5,0 C 4,3 C 0,0 C 84 % 90 % 1021,8 hPa 0,0 l/m 0,0 km/h (0 Bft) NO 45 0 min 2,8 C 4,3 C 0,0 km/h (0 Bft)
17.12.2020 00:35 5,1 C 7,0 C 3,5 C 4,7 C 3,9 C 0,0 C 84 % 90 % 1021,8 hPa 0,0 l/m 0,2 km/h (0 Bft) S 180 0 min 2,6 C 3,9 C 3,1 km/h (1 Bft)
17.12.2020 00:40 5,0 C 7,0 C 3,4 C 4,6 C 3,8 C 0,0 C 84 % 90 % 1021,8 hPa 0,0 l/m 0,2 km/h (0 Bft) S 180 0 min 2,5 C 3,8 C 0,0 km/h (0 Bft)
17.12.2020 00:45 5,0 C 7,0 C 3,3 C 4,6 C 3,8 C 0,0 C 84 % 90 % 1021,8 hPa 0,0 l/m 0,2 km/h (0 Bft) S-SO 157 0 min 2,5 C 3,8 C 0,0 km/h (0 Bft)
17.12.2020 00:50 5,0 C 7,0 C 3,2 C 4,6 C 3,8 C 0,0 C 84 % 90 % 1021,6 hPa 0,0 l/m 0,3 km/h (0 Bft) O-NO 67 0 min 2,5 C 3,8 C 0,0 km/h (0 Bft)
17.12.2020 00:55 5,0 C 6,9 C 3,4 C 4,6 C 3,8 C 0,0 C 85 % 91 % 1021,6 hPa 0,0 l/m 0,5 km/h (0 Bft) S 180 0 min 2,7 C 3,8 C 4,0 km/h (1 Bft)
17.12.2020 01:00 4,9 C 7,0 C 3,4 C 4,6 C 3,9 C 0,0 C 85 % 91 % 1021,6 hPa 0,0 l/m 0,3 km/h (0 Bft) O-NO 67 0 min 2,6 C 3,9 C 0,0 km/h (0 Bft)
17.12.2020 01:05 4,9 C 6,9 C 3,5 C 4,6 C 3,9 C 0,0 C 85 % 91 % 1021,6 hPa 0,0 l/m 0,5 km/h (0 Bft) O-NO 67 0 min 2,6 C 3,9 C 1,9 km/h (1 Bft)
17.12.2020 01:10 4,8 C 6,9 C 3,5 C 4,5 C 3,9 C 0,0 C 85 % 91 % 1022,2 hPa 0,0 l/m 0,3 km/h (0 Bft) O-NO 67 0 min 2,5 C 3,9 C 1,6 km/h (1 Bft)
17.12.2020 01:15 4,8 C 6,9 C 3,6 C 4,5 C 3,9 C 0,0 C 85 % 91 % 1022,2 hPa 0,0 l/m 0,5 km/h (0 Bft) O-NO 67 0 min 2,5 C 3,9 C 0,0 km/h (0 Bft)
17.12.2020 01:20 4,8 C 7,0 C 3,5 C 4,5 C 3,8 C 0,0 C 85 % 90 % 1022,2 hPa 0,0 l/m 0,3 km/h (0 Bft) O-NO 67 0 min 2,5 C 3,8 C 0,0 km/h (0 Bft)
17.12.2020 01:25 4,6 C 7,0 C 3,4 C 4,3 C 3,6 C 0,0 C 85 % 90 % 1022,2 hPa 0,0 l/m 0,2 km/h (0 Bft) O-NO 67 0 min 2,3 C 3,6 C 0,0 km/h (0 Bft)
17.12.2020 01:30 4,5 C 7,0 C 3,2 C 4,1 C 3,4 C 0,0 C 84 % 90 % 1021,9 hPa 0,0 l/m 0,2 km/h (0 Bft) O-NO 67 0 min 2,0 C 3,4 C 0,0 km/h (0 Bft)
17.12.2020 01:35 4,5 C 7,0 C 3,0 C 4,1 C 3,2 C 0,0 C 84 % 90 % 1021,9 hPa 0,0 l/m 0,0 km/h (0 Bft) O-NO 67 0 min 2,0 C 3,2 C 0,0 km/h (0 Bft)
17.12.2020 01:40 4,4 C 7,0 C 2,9 C 4,0 C 3,1 C 0,0 C 84 % 90 % 1021,9 hPa 0,0 l/m 0,0 km/h (0 Bft) O-NO 67 0 min 1,9 C 3,1 C 0,0 km/h (0 Bft)
17.12.2020 01:45 4,3 C 6,9 C 2,8 C 3,8 C 2,8 C 0,0 C 84 % 90 % 1021,9 hPa 0,0 l/m 0,0 km/h (0 Bft) S-SO 157 0 min 1,8 C 2,8 C 0,0 km/h (0 Bft)
17.12.2020 01:50 4,1 C 6,9 C 2,7 C 3,7 C 2,8 C 0,0 C 84 % 90 % 1022,0 hPa 0,0 l/m 0,0 km/h (0 Bft) S-SO 157 0 min 1,6 C 2,8 C 0,0 km/h (0 Bft)
17.12.2020 01:55 4,0 C 6,9 C 2,6 C 3,5 C 2,6 C 0,0 C 84 % 90 % 1022,0 hPa 0,0 l/m 0,0 km/h (0 Bft) S-SO 157 0 min 1,5 C 2,6 C 0,0 km/h (0 Bft)
17.12.2020 02:00 4,0 C 6,9 C 2,4 C 3,5 C 2,5 C 0,0 C 84 % 90 % 1022,0 hPa 0,0 l/m 0,2 km/h (0 Bft) S-SO 157 0 min 1,5 C 2,5 C 2,4 km/h (1 Bft)
17.12.2020 02:05 4,0 C 6,9 C 2,4 C 3,5 C 2,5 C 0,0 C 85 % 91 % 1022,0 hPa 0,0 l/m 0,2 km/h (0 Bft) S-SO 157 0 min 1,7 C 2,5 C 0,0 km/h (0 Bft)
17.12.2020 02:10 3,9 C 6,9 C 2,3 C 3,4 C 2,4 C 0,0 C 85 % 91 % 1022,0 hPa 0,0 l/m 0,2 km/h (0 Bft) S-SO 157 0 min 1,6 C 2,4 C 0,0 km/h (0 Bft)
17.12.2020 02:15 3,7 C 6,9 C 2,2 C 3,3 C 2,4 C 0,0 C 85 % 91 % 1022,0 hPa 0,0 l/m 0,0 km/h (0 Bft) O-NO 67 0 min 1,4 C 2,4 C 1,9 km/h (1 Bft)
17.12.2020 02:20 3,7 C 6,9 C 2,3 C 3,3 C 2,5 C 0,0 C 85 % 91 % 1022,0 hPa 0,0 l/m 0,2 km/h (0 Bft) O-NO 67 0 min 1,4 C 2,5 C 1,6 km/h (1 Bft)
17.12.2020 02:25 3,6 C 6,9 C 2,3 C 3,2 C 2,5 C 0,0 C 85 % 91 % 1022,0 hPa 0,0 l/m 0,2 km/h (0 Bft) O-NO 67 0 min 1,3 C 2,5 C 0,0 km/h (0 Bft)
17.12.2020 02:30 3,6 C 6,9 C 2,2 C 3,2 C 2,3 C 0,0 C 85 % 91 % 1022,3 hPa 0,0 l/m 0,0 km/h (0 Bft) O-NO 67 0 min 1,3 C 2,3 C 0,0 km/h (0 Bft)
17.12.2020 02:35 3,6 C 6,9 C 2,1 C 3,2 C 2,3 C 0,0 C 85 % 91 % 1022,3 hPa 0,0 l/m 0,3 km/h (0 Bft) S 180 0 min 1,3 C 2,3 C 2,6 km/h (1 Bft)
17.12.2020 02:40 3,6 C 6,9 C 2,2 C 3,2 C 2,3 C 0,0 C 85 % 91 % 1022,3 hPa 0,0 l/m 0,6 km/h (0 Bft) S 180 0 min 1,3 C 2,3 C 0,0 km/h (0 Bft)
17.12.2020 02:45 3,7 C 6,9 C 2,1 C 3,3 C 2,4 C 0,0 C 86 % 91 % 1022,3 hPa 0,0 l/m 1,1 km/h (1 Bft) S 180 0 min 1,6 C 2,4 C 1,8 km/h (1 Bft)
17.12.2020 02:50 3,7 C 6,9 C 2,1 C 3,3 C 2,4 C 0,0 C 86 % 91 % 1022,0 hPa 0,0 l/m 1,3 km/h (1 Bft) S-SW 202 0 min 1,6 C 2,4 C 3,4 km/h (1 Bft)
17.12.2020 02:55 3,6 C 6,9 C 2,1 C 3,2 C 2,4 C 0,0 C 86 % 91 % 1022,0 hPa 0,0 l/m 1,0 km/h (0 Bft) S-SO 157 0 min 1,5 C 2,4 C 0,0 km/h (0 Bft)
17.12.2020 03:00 3,4 C 6,9 C 1,9 C 3,0 C 2,2 C 0,0 C 86 % 91 % 1022,0 hPa 0,0 l/m 0,6 km/h (0 Bft) W-SW 247 0 min 1,3 C 2,2 C 0,0 km/h (0 Bft)
17.12.2020 03:05 3,4 C 6,9 C 1,9 C 2,9 C 2,0 C 0,0 C 86 % 91 % 1022,0 hPa 0,0 l/m 0,3 km/h (0 Bft) SW 225 0 min 1,3 C 2,0 C 0,0 km/h (0 Bft)
17.12.2020 03:10 3,3 C 6,9 C 1,9 C 2,8 C 1,9 C 0,0 C 86 % 91 % 1022,4 hPa 0,0 l/m 0,2 km/h (0 Bft) SW 225 0 min 1,2 C 1,9 C 0,0 km/h (0 Bft)
17.12.2020 03:15 3,2 C 6,9 C 1,7 C 2,7 C 1,7 C 0,0 C 86 % 91 % 1022,4 hPa 0,0 l/m 0,2 km/h (0 Bft) SW 225 0 min 1,1 C 1,7 C 0,0 km/h (0 Bft)
17.12.2020 03:20 3,1 C 6,9 C 1,5 C 2,6 C 1,7 C 0,0 C 86 % 91 % 1022,4 hPa 0,0 l/m 0,2 km/h (0 Bft) S-SO 157 0 min 1,0 C 1,7 C 0,0 km/h (0 Bft)
17.12.2020 03:25 3,0 C 6,9 C 1,4 C 2,5 C 1,6 C 0,0 C 86 % 91 % 1022,4 hPa 0,0 l/m 0,2 km/h (0 Bft) S-SO 157 0 min 0,9 C 1,6 C 0,0 km/h (0 Bft)
17.12.2020 03:30 2,8 C 6,9 C 1,3 C 2,4 C 1,6 C 0,0 C 86 % 92 % 1021,8 hPa 0,0 l/m 0,0 km/h (0 Bft) S-SO 157 0 min 0,7 C 1,6 C 0,0 km/h (0 Bft)
17.12.2020 03:35 2,7 C 6,9 C 1,2 C 2,4 C 1,7 C 0,0 C 86 % 92 % 1021,8 hPa 0,0 l/m 0,0 km/h (0 Bft) S-SO 157 0 min 0,6 C 1,7 C 0,0 km/h (0 Bft)
17.12.2020 03:40 2,7 C 7,0 C 1,1 C 2,3 C 1,4 C 0,0 C 86 % 92 % 1021,8 hPa 0,0 l/m 0,0 km/h (0 Bft) S 180 0 min 0,6 C 1,4 C 0,0 km/h (0 Bft)
17.12.2020 03:45 2,5 C 7,0 C 1,1 C 2,1 C 1,2 C 0,0 C 86 % 92 % 1021,8 hPa 0,0 l/m 0,0 km/h (0 Bft) S 180 0 min 0,4 C 1,2 C 0,0 km/h (0 Bft)
17.12.2020 03:50 2,4 C 7,0 C 1,0 C 1,9 C 1,0 C 0,0 C 86 % 92 % 1021,9 hPa 0,0 l/m 0,0 km/h (0 Bft) S 180 0 min 0,3 C 1,0 C 0,0 km/h (0 Bft)
17.12.2020 03:55 2,3 C 7,0 C 0,9 C 1,9 C 1,0 C 0,0 C 86 % 92 % 1021,9 hPa 0,0 l/m 0,0 km/h (0 Bft) S 180 0 min 0,2 C 1,0 C 0,0 km/h (0 Bft)
17.12.2020 04:00 2,3 C 7,0 C 0,8 C 1,8 C 0,9 C 0,0 C 86 % 91 % 1021,9 hPa 0,0 l/m 0,0 km/h (0 Bft) S 180 0 min 0,2 C 0,9 C 0,0 km/h (0 Bft)
17.12.2020 04:05 2,2 C 7,0 C 0,8 C 1,8 C 0,9 C 0,0 C 86 % 92 % 1021,9 hPa 0,0 l/m 0,2 km/h (0 Bft) S 180 0 min 0,1 C 0,9 C 0,0 km/h (0 Bft)
17.12.2020 04:10 2,2 C 7,0 C 0,8 C 1,8 C 0,9 C 0,0 C 86 % 92 % 1021,8 hPa 0,0 l/m 0,3 km/h (0 Bft) W 270 0 min 0,1 C 0,9 C 1,8 km/h (1 Bft)
17.12.2020 04:15 2,1 C 7,0 C 0,7 C 1,7 C 0,9 C 0,0 C 86 % 92 % 1021,8 hPa 0,0 l/m 0,3 km/h (0 Bft) W 270 0 min 0,0 C 0,9 C 0,0 km/h (0 Bft)
17.12.2020 04:20 2,0 C 7,0 C 0,7 C 1,6 C 0,9 C 0,0 C 86 % 92 % 1021,8 hPa 0,0 l/m 0,2 km/h (0 Bft) W 270 0 min -0,1 C 0,9 C 0,0 km/h (0 Bft)
17.12.2020 04:25 1,9 C 6,9 C 0,5 C 1,5 C 0,7 C 0,0 C 86 % 92 % 1021,8 hPa 0,0 l/m 0,0 km/h (0 Bft) W 270 0 min -0,2 C 0,7 C 0,0 km/h (0 Bft)
17.12.2020 04:30 1,9 C 6,9 C 0,5 C 1,5 C 0,6 C 0,0 C 86 % 92 % 1021,9 hPa 0,0 l/m 0,0 km/h (0 Bft) W 270 0 min -0,2 C 0,6 C 0,0 km/h (0 Bft)
17.12.2020 04:35 1,7 C 6,9 C 0,5 C 1,3 C 0,5 C 0,0 C 86 % 92 % 1021,9 hPa 0,0 l/m 0,0 km/h (0 Bft) W 270 0 min -0,4 C 0,5 C 0,0 km/h (0 Bft)
17.12.2020 04:40 1,7 C 6,9 C 0,5 C 1,4 C 0,7 C 0,0 C 86 % 92 % 1021,9 hPa 0,0 l/m 0,0 km/h (0 Bft) W 270 0 min -0,4 C 0,7 C 0,0 km/h (0 Bft)
17.12.2020 04:45 1,7 C 6,9 C 0,3 C 1,4 C 0,8 C 0,0 C 87 % 92 % 1021,9 hPa 0,0 l/m 0,0 km/h (0 Bft) W 270 0 min -0,2 C 0,8 C 0,0 km/h (0 Bft)
17.12.2020 04:50 1,7 C 6,9 C 0,3 C 1,4 C 0,8 C 0,0 C 87 % 92 % 1022,2 hPa 0,0 l/m 0,0 km/h (0 Bft) W 270 0 min -0,2 C 0,8 C 0,0 km/h (0 Bft)
17.12.2020 04:55 1,7 C 6,9 C 0,3 C 1,4 C 0,8 C 0,0 C 87 % 92 % 1022,2 hPa 0,0 l/m 0,0 km/h (0 Bft) W 270 0 min -0,2 C 0,8 C 0,0 km/h (0 Bft)
17.12.2020 05:00 1,7 C 6,9 C 0,5 C 1,4 C 0,9 C 0,0 C 87 % 92 % 1022,2 hPa 0,0 l/m 0,0 km/h (0 Bft) W 270 0 min -0,2 C 0,9 C 0,0 km/h (0 Bft)
17.12.2020 05:05 1,7 C 6,9 C 0,4 C 1,4 C 0,9 C 0,0 C 87 % 92 % 1022,2 hPa 0,0 l/m 0,0 km/h (0 Bft) W 270 0 min -0,2 C 0,9 C 0,0 km/h (0 Bft)
17.12.2020 05:10 1,6 C 6,9 C 0,3 C 1,3 C 0,8 C 0,0 C 87 % 92 % 1022,2 hPa 0,0 l/m 0,0 km/h (0 Bft) W 270 0 min -0,3 C 0,8 C 0,0 km/h (0 Bft)
17.12.2020 05:15 1,5 C 6,9 C 0,3 C 1,3 C 0,8 C 0,0 C 87 % 92 % 1022,2 hPa 0,0 l/m 0,5 km/h (0 Bft) S-SO 157 0 min -0,4 C 0,8 C 0,0 km/h (0 Bft)
17.12.2020 05:20 1,6 C 6,9 C 0,4 C 1,4 C 0,9 C 0,0 C 87 % 93 % 1022,2 hPa 0,0 l/m 0,5 km/h (0 Bft) S-SO 157 0 min -0,3 C 0,9 C 0,0 km/h (0 Bft)
17.12.2020 05:25 1,4 C 6,9 C 0,2 C 1,2 C 0,8 C 0,0 C 87 % 92 % 1022,2 hPa 0,0 l/m 0,0 km/h (0 Bft) S-SO 157 0 min -0,5 C 0,8 C 0,0 km/h (0 Bft)
17.12.2020 05:30 1,3 C 6,9 C 0,1 C 1,1 C 0,6 C 0,0 C 87 % 92 % 1022,1 hPa 0,0 l/m 0,0 km/h (0 Bft) S-SO 157 0 min -0,6 C 0,6 C 0,0 km/h (0 Bft)
17.12.2020 05:35 1,2 C 6,7 C 0,0 C 0,9 C 0,4 C 0,0 C 87 % 93 % 1022,1 hPa 0,0 l/m 0,0 km/h (0 Bft) S-SO 157 0 min -0,7 C 0,4 C 0,0 km/h (0 Bft)
17.12.2020 05:40 1,3 C 6,7 C -0,1 C 1,0 C 0,3 C 0,0 C 87 % 92 % 1022,1 hPa 0,0 l/m 0,3 km/h (0 Bft) SW 225 0 min -0,6 C 0,3 C 2,6 km/h (1 Bft)
17.12.2020 05:45 1,0 C 6,8 C -0,1 C 0,7 C 0,1 C 0,0 C 87 % 93 % 1022,1 hPa 0,0 l/m 0,6 km/h (0 Bft) SW 225 0 min -0,9 C 0,1 C 0,0 km/h (0 Bft)
17.12.2020 05:50 0,9 C 6,8 C -0,2 C 0,5 C -0,3 C 0,0 C 87 % 92 % 1022,3 hPa 0,0 l/m 0,5 km/h (0 Bft) SW 225 0 min -1,0 C -0,3 C 0,0 km/h (0 Bft)
17.12.2020 05:55 0,8 C 6,8 C -0,2 C 0,4 C -0,3 C 0,0 C 87 % 92 % 1022,3 hPa 0,0 l/m 0,5 km/h (0 Bft) SW 225 0 min -1,1 C -0,3 C 0,0 km/h (0 Bft)
17.12.2020 06:00 0,8 C 6,8 C -0,3 C 0,4 C -0,3 C 0,0 C 87 % 92 % 1022,3 hPa 0,0 l/m 0,5 km/h (0 Bft) SW 225 0 min -1,1 C -0,3 C 0,0 km/h (0 Bft)
17.12.2020 06:05 0,7 C 6,8 C -0,3 C 0,4 C -0,2 C 0,0 C 87 % 92 % 1022,3 hPa 0,0 l/m 0,0 km/h (0 Bft) SW 225 0 min -1,2 C -0,2 C 0,0 km/h (0 Bft)
17.12.2020 06:10 0,7 C 6,8 C -0,4 C 0,4 C -0,2 C 0,0 C 87 % 92 % 1022,7 hPa 0,0 l/m 0,0 km/h (0 Bft) SW 225 0 min -1,2 C -0,2 C 0,0 km/h (0 Bft)
17.12.2020 06:15 0,7 C 6,8 C -0,4 C 0,4 C -0,3 C 0,0 C 87 % 92 % 1022,7 hPa 0,0 l/m 0,0 km/h (0 Bft) SW 225 0 min -1,2 C -0,3 C 0,0 km/h (0 Bft)
17.12.2020 06:20 0,5 C 6,8 C -0,5 C 0,2 C -0,4 C 0,0 C 87 % 92 % 1022,7 hPa 0,0 l/m 0,0 km/h (0 Bft) SW 225 0 min -1,4 C -0,4 C 0,0 km/h (0 Bft)
17.12.2020 06:25 0,4 C 6,7 C -0,5 C 0,1 C -0,6 C 0,0 C 87 % 92 % 1022,7 hPa 0,0 l/m 0,0 km/h (0 Bft) SW 225 0 min -1,5 C -0,6 C 0,0 km/h (0 Bft)
17.12.2020 06:30 0,4 C 6,7 C -0,5 C 0,1 C -0,6 C 0,0 C 87 % 92 % 1022,1 hPa 0,0 l/m 0,0 km/h (0 Bft) W-SW 247 0 min -1,5 C -0,6 C 0,0 km/h (0 Bft)
17.12.2020 06:35 0,3 C 6,7 C -0,5 C 0,0 C -0,6 C 0,0 C 87 % 92 % 1022,1 hPa 0,0 l/m 0,0 km/h (0 Bft) SW 225 0 min -1,6 C -0,6 C 0,0 km/h (0 Bft)
17.12.2020 06:40 0,3 C 6,7 C -0,5 C 0,0 C -0,6 C 0,0 C 87 % 92 % 1022,1 hPa 0,0 l/m 0,0 km/h (0 Bft) SW 225 0 min -1,6 C -0,6 C 0,0 km/h (0 Bft)
17.12.2020 06:45 0,3 C 6,7 C -0,5 C 0,0 C -0,6 C 0,0 C 88 % 92 % 1022,1 hPa 0,0 l/m 0,0 km/h (0 Bft) SW 225 0 min -1,4 C -0,6 C 0,0 km/h (0 Bft)
17.12.2020 06:50 0,3 C 6,7 C -0,6 C 0,0 C -0,6 C 0,0 C 88 % 92 % 1022,4 hPa 0,0 l/m 0,0 km/h (0 Bft) SW 225 0 min -1,4 C -0,6 C 0,0 km/h (0 Bft)
17.12.2020 06:55 0,1 C 6,7 C -0,6 C -0,1 C -0,5 C 0,0 C 88 % 92 % 1022,4 hPa 0,0 l/m 0,0 km/h (0 Bft) SW 225 0 min -1,6 C -0,5 C 0,0 km/h (0 Bft)
17.12.2020 07:00 0,1 C 6,7 C -0,4 C 0,0 C -0,3 C 0,0 C 88 % 92 % 1022,4 hPa 0,0 l/m 0,0 km/h (0 Bft) SW 225 0 min -1,6 C -0,3 C 0,0 km/h (0 Bft)
17.12.2020 07:05 0,1 C 6,7 C -0,3 C 0,1 C 0,0 C 0,0 C 88 % 92 % 1022,4 hPa 0,0 l/m 0,0 km/h (0 Bft) SW 225 0 min -1,6 C 0,0 C 0,0 km/h (0 Bft)
17.12.2020 07:10 0,1 C 6,7 C -0,2 C 0,1 C 0,1 C 0,0 C 88 % 93 % 1022,4 hPa 0,0 l/m 0,0 km/h (0 Bft) SW 225 0 min -1,6 C 0,1 C 0,0 km/h (0 Bft)
17.12.2020 07:15 0,1 C 6,7 C -0,1 C 0,3 C 0,3 C 0,2 C 88 % 93 % 1022,4 hPa 0,0 l/m 0,0 km/h (0 Bft) SW 225 0 min -1,6 C 0,3 C 0,0 km/h (0 Bft)
17.12.2020 07:20 0,1 C 6,6 C -0,1 C 0,2 C 0,2 C 0,1 C 88 % 93 % 1022,4 hPa 0,0 l/m 0,0 km/h (0 Bft) SW 225 0 min -1,6 C 0,2 C 0,0 km/h (0 Bft)
17.12.2020 07:25 0,1 C 6,6 C 0,1 C 0,2 C 0,2 C 0,1 C 88 % 93 % 1022,4 hPa 0,0 l/m 0,5 km/h (0 Bft) W-SW 247 0 min -1,6 C 0,2 C 3,9 km/h (1 Bft)
17.12.2020 07:30 0,1 C 6,6 C 0,0 C 0,1 C 0,1 C 0,0 C 88 % 93 % 1022,2 hPa 0,0 l/m 0,6 km/h (0 Bft) W-SW 247 0 min -1,6 C 0,1 C 0,0 km/h (0 Bft)
17.12.2020 07:35 -0,1 C 6,6 C 0,0 C 0,0 C 0,0 C 0,1 C 88 % 93 % 1022,2 hPa 0,0 l/m 0,3 km/h (0 Bft) W-SW 247 0 min -1,8 C 0,0 C 0,0 km/h (0 Bft)
17.12.2020 07:40 -0,1 C 6,6 C 0,0 C -0,1 C -0,1 C 0,0 C 88 % 93 % 1022,2 hPa 0,0 l/m 0,2 km/h (0 Bft) W-SW 247 0 min -1,8 C -0,1 C 0,0 km/h (0 Bft)
17.12.2020 07:45 -0,1 C 6,6 C 0,1 C -0,1 C -0,1 C 0,0 C 88 % 93 % 1022,2 hPa 0,0 l/m 0,0 km/h (0 Bft) W-SW 247 0 min -1,8 C -0,1 C 0,0 km/h (0 Bft)
17.12.2020 07:50 -0,1 C 6,6 C 0,1 C 0,0 C 0,0 C 0,1 C 88 % 93 % 1022,4 hPa 0,0 l/m 0,2 km/h (0 Bft) W-SW 247 0 min -1,8 C 0,0 C 0,0 km/h (0 Bft)
17.12.2020 07:55 -0,1 C 6,6 C 0,3 C 0,1 C 0,1 C 0,2 C 88 % 93 % 1022,4 hPa 0,0 l/m 0,2 km/h (0 Bft) W-SW 247 0 min -1,8 C 0,1 C 0,0 km/h (0 Bft)
17.12.2020 08:00 -0,1 C 6,6 C 0,3 C 0,2 C 0,2 C 0,3 C 88 % 93 % 1022,4 hPa 0,0 l/m 0,6 km/h (0 Bft) W-SW 247 0 min -1,8 C 0,2 C 2,1 km/h (1 Bft)
17.12.2020 08:05 -0,1 C 6,6 C 0,5 C 0,4 C 0,4 C 0,5 C 88 % 93 % 1022,4 hPa 0,0 l/m 0,6 km/h (0 Bft) W-SW 247 0 min -1,8 C 0,4 C 0,0 km/h (0 Bft)
17.12.2020 08:10 0,1 C 6,6 C 0,7 C 0,6 C 0,6 C 0,5 C 88 % 93 % 1022,5 hPa 0,0 l/m 0,2 km/h (0 Bft) W-SW 247 0 min -1,6 C 0,6 C 0,0 km/h (0 Bft)
17.12.2020 08:15 0,1 C 6,6 C 0,7 C 0,9 C 0,9 C 0,8 C 88 % 93 % 1022,5 hPa 0,0 l/m 0,0 km/h (0 Bft) W-SW 247 0 min -1,6 C 0,9 C 0,0 km/h (0 Bft)
17.12.2020 08:20 0,1 C 6,6 C 0,8 C 0,9 C 0,9 C 0,8 C 88 % 93 % 1022,5 hPa 0,0 l/m 0,2 km/h (0 Bft) W-SW 247 0 min -1,6 C 0,9 C 0,0 km/h (0 Bft)
17.12.2020 08:25 0,1 C 6,6 C 0,8 C 0,9 C 0,9 C 0,8 C 88 % 93 % 1022,5 hPa 0,0 l/m 0,2 km/h (0 Bft) NW 315 5 min -1,6 C 0,9 C 0,0 km/h (0 Bft)
17.12.2020 08:30 0,1 C 6,5 C 0,9 C 1,1 C 1,1 C 1,0 C 88 % 93 % 1022,6 hPa 0,0 l/m 0,3 km/h (0 Bft) W-SW 247 5 min -1,6 C 1,1 C 0,0 km/h (0 Bft)
17.12.2020 08:35 0,3 C 6,5 C 0,9 C 1,1 C 1,1 C 0,8 C 88 % 93 % 1022,6 hPa 0,0 l/m 0,3 km/h (0 Bft) W-SW 247 5 min -1,4 C 1,1 C 0,0 km/h (0 Bft)
17.12.2020 08:40 0,3 C 6,5 C 1,1 C 1,2 C 1,2 C 0,9 C 88 % 93 % 1022,6 hPa 0,0 l/m 0,2 km/h (0 Bft) SW 225 5 min -1,4 C 1,2 C 1,9 km/h (1 Bft)
17.12.2020 08:45 0,4 C 6,5 C 1,3 C 1,4 C 1,4 C 1,0 C 88 % 93 % 1022,6 hPa 0,0 l/m 0,5 km/h (0 Bft) S 180 5 min -1,3 C 1,4 C 0,0 km/h (0 Bft)
17.12.2020 08:50 0,4 C 6,4 C 1,4 C 1,5 C 1,5 C 1,1 C 88 % 93 % 1022,6 hPa 0,0 l/m 0,5 km/h (0 Bft) S 180 5 min -1,3 C 1,5 C 0,0 km/h (0 Bft)
17.12.2020 08:55 0,7 C 6,4 C 1,5 C 1,7 C 1,7 C 1,0 C 88 % 93 % 1022,6 hPa 0,0 l/m 0,3 km/h (0 Bft) S 180 5 min -1,1 C 1,7 C 0,0 km/h (0 Bft)
17.12.2020 09:00 0,7 C 6,4 C 1,5 C 1,8 C 1,8 C 1,1 C 88 % 93 % 1022,6 hPa 0,0 l/m 0,3 km/h (0 Bft) S 180 5 min -1,1 C 1,8 C 0,0 km/h (0 Bft)
17.12.2020 09:05 0,6 C 6,4 C 1,4 C 1,6 C 1,6 C 1,0 C 88 % 93 % 1022,6 hPa 0,0 l/m 0,0 km/h (0 Bft) S 180 5 min -1,2 C 1,6 C 0,0 km/h (0 Bft)
17.12.2020 09:10 0,5 C 6,4 C 1,3 C 1,5 C 1,5 C 1,0 C 88 % 93 % 1022,3 hPa 0,0 l/m 0,0 km/h (0 Bft) S-SO 157 0 min -1,3 C 1,5 C 0,0 km/h (0 Bft)
17.12.2020 09:15 0,6 C 6,4 C 1,5 C 1,7 C 1,7 C 1,1 C 88 % 93 % 1022,3 hPa 0,0 l/m 0,0 km/h (0 Bft) S-SO 157 0 min -1,2 C 1,7 C 0,0 km/h (0 Bft)
17.12.2020 09:20 0,6 C 6,4 C 1,5 C 2,0 C 2,0 C 1,4 C 88 % 93 % 1022,3 hPa 0,0 l/m 0,0 km/h (0 Bft) S-SO 157 0 min -1,2 C 2,0 C 0,0 km/h (0 Bft)
17.12.2020 09:25 0,8 C 6,4 C 1,7 C 2,1 C 2,1 C 1,3 C 88 % 93 % 1022,3 hPa 0,0 l/m 0,0 km/h (0 Bft) S-SO 157 0 min -1,0 C 2,1 C 0,0 km/h (0 Bft)
17.12.2020 09:30 0,8 C 6,4 C 1,8 C 2,4 C 2,4 C 1,6 C 88 % 93 % 1022,3 hPa 0,0 l/m 0,0 km/h (0 Bft) S-SO 157 0 min -1,0 C 2,4 C 0,0 km/h (0 Bft)
17.12.2020 09:35 0,9 C 6,3 C 2,0 C 2,7 C 2,7 C 1,8 C 88 % 93 % 1022,3 hPa 0,0 l/m 0,0 km/h (0 Bft) S 180 0 min -0,9 C 2,7 C 0,0 km/h (0 Bft)
17.12.2020 09:40 1,1 C 6,4 C 2,0 C 2,9 C 2,9 C 1,8 C 88 % 92 % 1022,3 hPa 0,0 l/m 0,0 km/h (0 Bft) S 180 0 min -0,7 C 2,9 C 0,0 km/h (0 Bft)
17.12.2020 09:45 1,1 C 6,4 C 2,0 C 3,0 C 3,0 C 1,9 C 88 % 92 % 1022,3 hPa 0,0 l/m 0,0 km/h (0 Bft) S 180 0 min -0,7 C 3,0 C 0,0 km/h (0 Bft)
17.12.2020 09:50 1,1 C 6,4 C 2,0 C 3,1 C 3,1 C 2,0 C 88 % 92 % 1022,2 hPa 0,0 l/m 0,0 km/h (0 Bft) S 180 0 min -0,7 C 3,1 C 0,0 km/h (0 Bft)
17.12.2020 09:55 1,2 C 6,4 C 2,1 C 3,1 C 3,1 C 1,9 C 88 % 92 % 1022,2 hPa 0,0 l/m 0,2 km/h (0 Bft) S 180 0 min -0,6 C 3,1 C 0,0 km/h (0 Bft)
17.12.2020 10:00 1,2 C 6,4 C 2,2 C 3,1 C 3,1 C 1,9 C 88 % 93 % 1022,2 hPa 0,0 l/m 0,2 km/h (0 Bft) SW 225 0 min -0,6 C 3,1 C 0,0 km/h (0 Bft)
17.12.2020 10:05 1,2 C 6,4 C 2,3 C 3,1 C 3,1 C 1,9 C 88 % 93 % 1022,2 hPa 0,0 l/m 0,2 km/h (0 Bft) SW 225 0 min -0,6 C 3,1 C 0,0 km/h (0 Bft)
17.12.2020 10:10 1,3 C 6,4 C 2,5 C 3,4 C 3,4 C 2,1 C 88 % 93 % 1023,1 hPa 0,0 l/m 0,0 km/h (0 Bft) SW 225 0 min -0,5 C 3,4 C 0,0 km/h (0 Bft)
17.12.2020 10:15 1,5 C 6,4 C 2,7 C 3,8 C 3,8 C 2,3 C 88 % 93 % 1023,1 hPa 0,0 l/m 0,3 km/h (0 Bft) S-SO 157 0 min -0,3 C 3,8 C 2,3 km/h (1 Bft)
17.12.2020 10:20 1,6 C 6,3 C 2,9 C 4,2 C 4,2 C 2,6 C 88 % 93 % 1023,1 hPa 0,0 l/m 0,3 km/h (0 Bft) S 180 0 min -0,2 C 4,2 C 0,0 km/h (0 Bft)
17.12.2020 10:25 1,7 C 6,3 C 3,2 C 4,7 C 4,7 C 3,0 C 88 % 93 % 1023,1 hPa 0,0 l/m 0,2 km/h (0 Bft) SW 225 0 min -0,1 C 4,7 C 0,0 km/h (0 Bft)
17.12.2020 10:30 1,9 C 6,2 C 3,4 C 5,1 C 5,1 C 3,2 C 88 % 93 % 1022,4 hPa 0,0 l/m 0,3 km/h (0 Bft) S 180 0 min 0,1 C 5,1 C 3,1 km/h (1 Bft)
17.12.2020 10:35 2,3 C 6,1 C 3,6 C 5,4 C 5,4 C 3,1 C 89 % 93 % 1022,4 hPa 0,0 l/m 2,1 km/h (1 Bft) SO 135 0 min 0,7 C 5,4 C 5,8 km/h (2 Bft)
17.12.2020 10:40 2,5 C 6,1 C 3,8 C 5,6 C 5,6 C 3,1 C 89 % 92 % 1022,4 hPa 0,0 l/m 2,3 km/h (1 Bft) S-SO 157 0 min 0,9 C 5,6 C 0,0 km/h (0 Bft)
17.12.2020 10:45 2,9 C 6,1 C 4,0 C 5,9 C 5,9 C 3,0 C 88 % 92 % 1022,4 hPa 0,0 l/m 1,3 km/h (1 Bft) S 180 0 min 1,1 C 5,9 C 0,0 km/h (0 Bft)
17.12.2020 10:50 3,0 C 6,1 C 4,3 C 6,1 C 6,1 C 3,1 C 88 % 92 % 1022,7 hPa 0,0 l/m 1,1 km/h (1 Bft) S-SO 157 0 min 1,2 C 6,1 C 4,8 km/h (1 Bft)
17.12.2020 10:55 3,4 C 6,1 C 4,5 C 6,3 C 6,3 C 2,9 C 88 % 92 % 1022,7 hPa 0,0 l/m 2,1 km/h (1 Bft) S-SO 157 0 min 1,6 C 6,3 C 3,1 km/h (1 Bft)
17.12.2020 11:00 3,7 C 6,1 C 4,7 C 6,4 C 6,4 C 2,7 C 88 % 92 % 1022,7 hPa 0,0 l/m 2,1 km/h (1 Bft) O-SO 112 0 min 1,9 C 6,4 C 0,0 km/h (0 Bft)
17.12.2020 11:05 4,1 C 6,1 C 4,7 C 6,5 C 6,5 C 2,4 C 88 % 92 % 1022,7 hPa 0,0 l/m 1,6 km/h (1 Bft) S-SO 157 0 min 2,3 C 6,5 C 1,9 km/h (1 Bft)
17.12.2020 11:10 4,4 C 6,1 C 4,7 C 6,7 C 6,7 C 2,3 C 88 % 91 % 1022,9 hPa 0,0 l/m 0,8 km/h (0 Bft) O-NO 67 0 min 2,6 C 6,7 C 0,0 km/h (0 Bft)
17.12.2020 11:15 4,8 C 6,1 C 4,9 C 7,0 C 7,0 C 2,2 C 88 % 91 % 1022,9 hPa 0,0 l/m 0,8 km/h (0 Bft) S 180 0 min 3,0 C 7,0 C 2,3 km/h (1 Bft)
17.12.2020 11:20 4,9 C 6,1 C 5,0 C 7,2 C 7,2 C 2,3 C 88 % 91 % 1022,9 hPa 0,0 l/m 0,6 km/h (0 Bft) S 180 0 min 3,1 C 7,2 C 1,9 km/h (1 Bft)
17.12.2020 11:25 5,2 C 6,1 C 5,2 C 7,3 C 7,3 C 2,1 C 87 % 91 % 1022,9 hPa 0,0 l/m 1,3 km/h (1 Bft) NO 45 0 min 3,2 C 7,3 C 4,5 km/h (1 Bft)
17.12.2020 11:30 5,5 C 6,1 C 5,4 C 7,2 C 7,2 C 1,7 C 87 % 90 % 1022,9 hPa 0,0 l/m 1,9 km/h (1 Bft) S 180 0 min 3,5 C 7,2 C 4,2 km/h (1 Bft)
17.12.2020 11:35 5,7 C 6,1 C 5,6 C 7,3 C 7,3 C 1,6 C 87 % 90 % 1022,9 hPa 0,0 l/m 2,7 km/h (1 Bft) S-SW 202 0 min 3,7 C 7,3 C 9,8 km/h (2 Bft)
17.12.2020 11:40 5,9 C 6,1 C 5,7 C 7,3 C 7,3 C 1,4 C 87 % 89 % 1022,9 hPa 0,0 l/m 2,9 km/h (1 Bft) O-SO 112 0 min 3,9 C 7,3 C 3,5 km/h (1 Bft)
17.12.2020 11:45 6,0 C 6,1 C 5,9 C 7,4 C 7,4 C 1,4 C 87 % 89 % 1022,9 hPa 0,0 l/m 2,1 km/h (1 Bft) S-SW 202 0 min 4,0 C 7,4 C 3,5 km/h (1 Bft)
17.12.2020 11:50 6,0 C 6,1 C 5,9 C 7,4 C 7,4 C 1,4 C 86 % 89 % 1022,8 hPa 0,0 l/m 2,1 km/h (1 Bft) SO 135 0 min 3,8 C 7,4 C 4,8 km/h (1 Bft)
17.12.2020 11:55 6,1 C 6,1 C 5,9 C 7,0 C 7,0 C 0,9 C 85 % 88 % 1022,8 hPa 0,0 l/m 4,3 km/h (1 Bft) S 180 0 min 3,8 C 7,0 C 6,1 km/h (2 Bft)
17.12.2020 12:00 6,3 C 6,1 C 5,9 C 7,2 C 7,2 C 0,9 C 85 % 88 % 1022,8 hPa 0,0 l/m 3,9 km/h (1 Bft) W-SW 247 0 min 4,0 C 7,2 C 3,2 km/h (1 Bft)
17.12.2020 12:05 6,3 C 6,1 C 6,0 C 7,5 C 7,5 C 1,2 C 85 % 88 % 1022,8 hPa 0,0 l/m 2,7 km/h (1 Bft) S 180 0 min 4,0 C 7,5 C 3,5 km/h (1 Bft)
17.12.2020 12:10 6,3 C 6,1 C 6,1 C 7,7 C 7,7 C 1,4 C 85 % 88 % 1022,9 hPa 0,0 l/m 1,9 km/h (1 Bft) O-NO 67 0 min 4,0 C 7,7 C 0,0 km/h (0 Bft)
17.12.2020 12:15 6,4 C 6,1 C 6,2 C 7,9 C 7,9 C 1,5 C 85 % 88 % 1022,9 hPa 0,0 l/m 0,8 km/h (0 Bft) SO 135 0 min 4,1 C 7,9 C 5,5 km/h (1 Bft)
17.12.2020 12:20 6,5 C 6,1 C 6,3 C 8,0 C 8,0 C 1,5 C 84 % 87 % 1022,9 hPa 0,0 l/m 1,3 km/h (1 Bft) SO 135 0 min 4,0 C 8,0 C 2,9 km/h (1 Bft)
17.12.2020 12:25 6,7 C 6,1 C 6,4 C 8,0 C 8,0 C 1,3 C 84 % 86 % 1022,9 hPa 0,0 l/m 3,7 km/h (1 Bft) S 180 0 min 4,2 C 8,0 C 5,1 km/h (1 Bft)
17.12.2020 12:30 6,6 C 6,1 C 6,5 C 8,0 C 8,0 C 1,4 C 83 % 86 % 1022,8 hPa 0,0 l/m 3,5 km/h (1 Bft) W-SW 247 0 min 3,9 C 8,0 C 1,6 km/h (1 Bft)
17.12.2020 12:35 6,7 C 6,1 C 6,6 C 8,3 C 8,3 C 1,6 C 83 % 86 % 1022,8 hPa 0,0 l/m 3,1 km/h (1 Bft) O 90 0 min 4,0 C 8,3 C 1,8 km/h (1 Bft)
17.12.2020 12:40 6,8 C 6,1 C 6,7 C 8,4 C 8,4 C 1,6 C 82 % 85 % 1022,8 hPa 0,0 l/m 2,9 km/h (1 Bft) S-SW 202 0 min 3,9 C 8,4 C 3,4 km/h (1 Bft)
17.12.2020 12:45 6,9 C 6,1 C 6,8 C 8,7 C 8,7 C 1,8 C 82 % 85 % 1022,8 hPa 0,0 l/m 2,1 km/h (1 Bft) SO 135 0 min 4,0 C 8,7 C 2,1 km/h (1 Bft)
17.12.2020 12:50 7,0 C 6,1 C 6,7 C 8,8 C 8,8 C 1,8 C 82 % 85 % 1022,2 hPa 0,0 l/m 1,6 km/h (1 Bft) S-SO 157 0 min 4,1 C 8,8 C 3,7 km/h (1 Bft)
17.12.2020 12:55 7,2 C 6,1 C 6,7 C 8,7 C 8,7 C 1,5 C 82 % 85 % 1022,2 hPa 0,0 l/m 2,6 km/h (1 Bft) SW 225 0 min 4,3 C 8,7 C 2,7 km/h (1 Bft)
17.12.2020 13:00 7,2 C 6,0 C 6,7 C 8,6 C 8,6 C 1,4 C 81 % 85 % 1022,2 hPa 0,0 l/m 2,7 km/h (1 Bft) S 180 0 min 4,2 C 8,6 C 2,1 km/h (1 Bft)
17.12.2020 13:05 7,3 C 6,0 C 6,7 C 8,7 C 8,7 C 1,4 C 81 % 85 % 1022,2 hPa 0,0 l/m 2,3 km/h (1 Bft) O-SO 112 0 min 4,3 C 8,7 C 2,1 km/h (1 Bft)
17.12.2020 13:10 7,5 C 6,0 C 6,8 C 8,8 C 8,8 C 1,3 C 81 % 85 % 1022,1 hPa 0,0 l/m 2,6 km/h (1 Bft) SW 225 0 min 4,5 C 8,8 C 3,5 km/h (1 Bft)
17.12.2020 13:15 7,8 C 6,1 C 7,1 C 9,5 C 9,5 C 1,7 C 81 % 85 % 1022,1 hPa 0,0 l/m 2,9 km/h (1 Bft) NO 45 0 min 4,7 C 9,5 C 1,9 km/h (1 Bft)
17.12.2020 13:20 8,0 C 6,1 C 7,3 C 9,9 C 9,9 C 1,9 C 80 % 84 % 1022,1 hPa 0,0 l/m 3,4 km/h (1 Bft) SO 135 0 min 4,8 C 9,9 C 10,1 km/h (2 Bft)
17.12.2020 13:25 8,2 C 6,1 C 7,5 C 10,1 C 10,1 C 1,9 C 80 % 83 % 1022,1 hPa 0,0 l/m 3,7 km/h (1 Bft) S-SO 157 0 min 5,0 C 10,1 C 7,6 km/h (2 Bft)
17.12.2020 13:30 8,3 C 6,1 C 7,5 C 10,1 C 10,1 C 1,8 C 79 % 83 % 1022,1 hPa 0,0 l/m 4,8 km/h (1 Bft) O-SO 112 0 min 4,9 C 10,1 C 3,1 km/h (1 Bft)
17.12.2020 13:35 8,4 C 6,1 C 7,7 C 10,4 C 10,4 C 2,0 C 79 % 83 % 1022,1 hPa 0,0 l/m 4,5 km/h (1 Bft) W-SW 247 0 min 5,0 C 10,4 C 14,5 km/h (3 Bft)
17.12.2020 13:40 8,6 C 6,1 C 7,7 C 10,4 C 10,4 C 1,8 C 78 % 82 % 1022,1 hPa 0,0 l/m 3,7 km/h (1 Bft) N-NO 22 0 min 5,0 C 10,4 C 3,7 km/h (1 Bft)
17.12.2020 13:45 8,6 C 6,1 C 7,7 C 10,1 C 10,1 C 1,5 C 77 % 82 % 1022,1 hPa 0,0 l/m 4,8 km/h (1 Bft) S-SW 202 0 min 4,8 C 10,1 C 4,7 km/h (1 Bft)
17.12.2020 13:50 8,7 C 6,1 C 7,8 C 10,3 C 10,3 C 1,6 C 77 % 82 % 1022,4 hPa 0,0 l/m 4,5 km/h (1 Bft) SO 135 0 min 4,9 C 10,3 C 2,4 km/h (1 Bft)
17.12.2020 13:55 8,7 C 6,1 C 7,8 C 10,6 C 10,6 C 1,9 C 77 % 81 % 1022,4 hPa 0,0 l/m 4,3 km/h (1 Bft) SO 135 0 min 4,9 C 10,6 C 4,5 km/h (1 Bft)
17.12.2020 14:00 8,7 C 6,1 C 7,8 C 10,6 C 10,6 C 1,9 C 77 % 81 % 1022,4 hPa 0,0 l/m 4,5 km/h (1 Bft) SO 135 0 min 4,9 C 10,6 C 6,8 km/h (2 Bft)
17.12.2020 14:05 8,7 C 6,1 C 7,9 C 10,5 C 10,5 C 1,8 C 77 % 81 % 1022,4 hPa 0,0 l/m 3,9 km/h (1 Bft) W 270 0 min 4,9 C 10,5 C 5,5 km/h (1 Bft)
17.12.2020 14:10 8,8 C 6,2 C 7,8 C 10,4 C 10,4 C 1,6 C 77 % 81 % 1022,4 hPa 0,0 l/m 4,2 km/h (1 Bft) NW 315 0 min 5,0 C 10,4 C 4,8 km/h (1 Bft)
17.12.2020 14:15 8,8 C 6,2 C 7,7 C 10,5 C 10,5 C 1,7 C 77 % 81 % 1022,4 hPa 0,0 l/m 4,3 km/h (1 Bft) SO 135 0 min 5,0 C 10,5 C 5,1 km/h (1 Bft)
17.12.2020 14:20 8,8 C 6,2 C 7,7 C 10,4 C 10,4 C 1,6 C 77 % 82 % 1022,4 hPa 0,0 l/m 4,2 km/h (1 Bft) S 180 0 min 5,0 C 10,4 C 1,8 km/h (1 Bft)
17.12.2020 14:25 8,8 C 6,2 C 7,7 C 10,6 C 10,6 C 1,8 C 77 % 82 % 1022,4 hPa 0,0 l/m 3,9 km/h (1 Bft) SW 225 0 min 5,0 C 10,6 C 4,3 km/h (1 Bft)
17.12.2020 14:30 8,8 C 6,2 C 7,7 C 10,3 C 10,3 C 1,5 C 76 % 82 % 1023,0 hPa 0,0 l/m 4,7 km/h (1 Bft) SW 225 0 min 4,8 C 10,3 C 8,7 km/h (2 Bft)
17.12.2020 14:35 8,8 C 6,2 C 7,7 C 9,6 C 9,6 C 0,8 C 76 % 82 % 1023,0 hPa 0,0 l/m 6,9 km/h (2 Bft) S-SW 202 0 min 4,8 C 8,8 C 9,3 km/h (2 Bft)
17.12.2020 14:40 8,8 C 6,2 C 7,6 C 9,4 C 9,4 C 0,6 C 76 % 82 % 1023,0 hPa 0,0 l/m 7,6 km/h (2 Bft) SW 225 0 min 4,8 C 8,4 C 9,7 km/h (2 Bft)
17.12.2020 14:45 8,6 C 6,2 C 7,5 C 9,3 C 8,7 C 0,7 C 76 % 81 % 1023,0 hPa 0,0 l/m 7,9 km/h (2 Bft) S 180 0 min 4,6 C 7,5 C 15,0 km/h (3 Bft)
17.12.2020 14:50 8,4 C 6,2 C 7,3 C 8,8 C 8,3 C 0,4 C 76 % 81 % 1023,1 hPa 0,0 l/m 7,9 km/h (2 Bft) S 180 0 min 4,4 C 7,0 C 4,0 km/h (1 Bft)
17.12.2020 14:55 8,3 C 6,2 C 7,2 C 8,2 C 7,9 C 0,0 C 77 % 82 % 1023,1 hPa 0,0 l/m 6,6 km/h (2 Bft) S 180 0 min 4,5 C 6,9 C 13,8 km/h (3 Bft)
17.12.2020 15:00 8,3 C 6,2 C 7,1 C 8,0 C 7,5 C 0,0 C 77 % 82 % 1023,1 hPa 0,0 l/m 6,3 km/h (2 Bft) SW 225 0 min 4,5 C 6,5 C 9,7 km/h (2 Bft)
17.12.2020 15:05 8,0 C 6,3 C 7,1 C 7,8 C 7,3 C 0,0 C 77 % 82 % 1023,1 hPa 0,0 l/m 6,3 km/h (2 Bft) O-SO 112 0 min 4,2 C 6,3 C 7,6 km/h (2 Bft)
17.12.2020 15:10 8,1 C 6,3 C 7,1 C 7,9 C 7,4 C 0,0 C 77 % 82 % 1023,1 hPa 0,0 l/m 6,0 km/h (2 Bft) S-SO 157 0 min 4,3 C 6,5 C 8,0 km/h (2 Bft)
17.12.2020 15:15 7,9 C 6,3 C 6,9 C 7,5 C 6,7 C 0,0 C 77 % 82 % 1023,1 hPa 0,0 l/m 7,2 km/h (2 Bft) S 180 0 min 4,1 C 5,3 C 17,5 km/h (3 Bft)
17.12.2020 15:20 7,7 C 6,4 C 6,7 C 7,3 C 6,6 C 0,0 C 77 % 82 % 1023,1 hPa 0,0 l/m 7,1 km/h (2 Bft) S 180 0 min 3,9 C 5,2 C 7,7 km/h (2 Bft)
17.12.2020 15:25 7,6 C 6,4 C 6,7 C 7,3 C 6,7 C 0,0 C 78 % 83 % 1023,1 hPa 0,0 l/m 5,6 km/h (1 Bft) S 180 0 min 4,0 C 5,8 C 11,7 km/h (2 Bft)
17.12.2020 15:30 7,5 C 6,4 C 6,7 C 7,3 C 6,9 C 0,0 C 78 % 83 % 1023,4 hPa 0,0 l/m 5,0 km/h (1 Bft) NO 45 0 min 3,9 C 6,2 C 2,9 km/h (1 Bft)
17.12.2020 15:35 7,5 C 6,4 C 6,7 C 7,4 C 7,2 C 0,0 C 79 % 83 % 1023,4 hPa 0,0 l/m 4,3 km/h (1 Bft) S 180 0 min 4,1 C 7,2 C 7,1 km/h (2 Bft)
17.12.2020 15:40 7,3 C 6,4 C 6,7 C 7,5 C 7,5 C 0,2 C 79 % 83 % 1023,4 hPa 0,0 l/m 3,4 km/h (1 Bft) SW 225 0 min 3,9 C 7,5 C 6,0 km/h (2 Bft)
17.12.2020 15:45 7,3 C 6,4 C 6,5 C 7,3 C 7,3 C 0,0 C 79 % 83 % 1023,4 hPa 0,0 l/m 3,2 km/h (1 Bft) SO 135 0 min 3,9 C 7,3 C 8,0 km/h (2 Bft)
17.12.2020 15:50 7,3 C 6,4 C 6,5 C 7,2 C 6,9 C 0,0 C 79 % 83 % 1023,5 hPa 0,0 l/m 4,2 km/h (1 Bft) N-NW 337 0 min 3,9 C 6,9 C 8,4 km/h (2 Bft)
17.12.2020 15:55 7,2 C 6,4 C 6,5 C 7,0 C 6,7 C 0,0 C 79 % 83 % 1023,5 hPa 0,0 l/m 4,8 km/h (1 Bft) S-SO 157 0 min 3,8 C 6,1 C 8,2 km/h (2 Bft)
17.12.2020 16:00 7,1 C 6,4 C 6,5 C 7,0 C 6,9 C 0,0 C 79 % 83 % 1023,5 hPa 0,0 l/m 4,2 km/h (1 Bft) N 360 0 min 3,7 C 6,9 C 2,7 km/h (1 Bft)
17.12.2020 16:05 7,1 C 6,4 C 6,5 C 7,0 C 6,7 C 0,0 C 79 % 83 % 1023,5 hPa 0,0 l/m 4,8 km/h (1 Bft) NW 315 0 min 3,7 C 6,1 C 2,7 km/h (1 Bft)
17.12.2020 16:10 7,1 C 6,4 C 6,4 C 7,0 C 6,8 C 0,0 C 79 % 84 % 1023,5 hPa 0,0 l/m 4,5 km/h (1 Bft) W-SW 247 0 min 3,7 C 6,8 C 6,6 km/h (2 Bft)
17.12.2020 16:15 6,9 C 6,4 C 6,3 C 7,1 C 7,1 C 0,2 C 80 % 84 % 1023,5 hPa 0,0 l/m 3,7 km/h (1 Bft) W 270 0 min 3,7 C 7,1 C 3,7 km/h (1 Bft)
17.12.2020 16:20 6,9 C 6,4 C 6,3 C 7,1 C 7,1 C 0,2 C 80 % 84 % 1023,5 hPa 0,0 l/m 3,5 km/h (1 Bft) S-SO 157 0 min 3,7 C 7,1 C 2,9 km/h (1 Bft)
17.12.2020 16:25 6,8 C 6,5 C 6,3 C 7,0 C 7,0 C 0,2 C 80 % 84 % 1023,5 hPa 0,0 l/m 3,2 km/h (1 Bft) O 90 0 min 3,6 C 7,0 C 3,5 km/h (1 Bft)
17.12.2020 16:30 6,9 C 6,5 C 6,3 C 6,8 C 6,7 C 0,0 C 80 % 84 % 1023,8 hPa 0,0 l/m 4,0 km/h (1 Bft) S-SO 157 0 min 3,7 C 6,7 C 6,3 km/h (2 Bft)
17.12.2020 16:35 6,8 C 6,5 C 6,3 C 6,5 C 6,0 C 0,0 C 81 % 85 % 1023,8 hPa 0,0 l/m 6,0 km/h (2 Bft) S-SW 202 0 min 3,8 C 4,9 C 12,1 km/h (2 Bft)
17.12.2020 16:40 6,8 C 6,5 C 6,3 C 6,4 C 5,6 C 0,0 C 81 % 85 % 1023,8 hPa 0,0 l/m 7,4 km/h (2 Bft) SW 225 0 min 3,8 C 4,0 C 10,3 km/h (2 Bft)
17.12.2020 16:45 6,9 C 6,5 C 6,3 C 6,5 C 5,6 C 0,0 C 81 % 85 % 1023,8 hPa 0,0 l/m 8,2 km/h (2 Bft) SW 225 0 min 3,9 C 3,8 C 11,1 km/h (2 Bft)
17.12.2020 16:50 6,8 C 6,5 C 6,3 C 6,6 C 5,7 C 0,0 C 81 % 85 % 1024,2 hPa 0,0 l/m 7,7 km/h (2 Bft) SW 225 0 min 3,8 C 4,0 C 10,1 km/h (2 Bft)
17.12.2020 16:55 6,9 C 6,5 C 6,3 C 6,5 C 5,8 C 0,0 C 81 % 85 % 1024,2 hPa 0,0 l/m 7,2 km/h (2 Bft) W-SW 247 0 min 3,9 C 4,3 C 15,6 km/h (3 Bft)
17.12.2020 17:00 6,8 C 6,5 C 6,3 C 6,5 C 5,8 C 0,0 C 81 % 85 % 1024,2 hPa 0,0 l/m 7,2 km/h (2 Bft) S-SW 202 0 min 3,8 C 4,3 C 11,9 km/h (2 Bft)
17.12.2020 17:05 6,8 C 6,5 C 6,3 C 6,6 C 5,7 C 0,0 C 81 % 85 % 1024,2 hPa 0,0 l/m 8,2 km/h (2 Bft) S 180 0 min 3,8 C 3,9 C 15,6 km/h (3 Bft)
17.12.2020 17:10 6,8 C 6,5 C 6,3 C 6,4 C 5,7 C 0,0 C 81 % 85 % 1024,2 hPa 0,0 l/m 8,2 km/h (2 Bft) SW 225 0 min 3,8 C 3,9 C 5,6 km/h (1 Bft)
17.12.2020 17:15 6,8 C 6,5 C 6,3 C 6,5 C 5,9 C 0,0 C 81 % 85 % 1024,2 hPa 0,0 l/m 7,2 km/h (2 Bft) S-SW 202 0 min 3,8 C 4,4 C 13,8 km/h (3 Bft)
17.12.2020 17:20 6,8 C 6,5 C 6,3 C 6,6 C 6,1 C 0,0 C 81 % 85 % 1024,2 hPa 0,0 l/m 6,6 km/h (2 Bft) O-SO 112 0 min 3,8 C 4,8 C 2,9 km/h (1 Bft)
17.12.2020 17:25 6,8 C 6,5 C 6,4 C 6,6 C 6,3 C 0,0 C 82 % 85 % 1024,2 hPa 0,0 l/m 6,0 km/h (2 Bft) W-SW 247 0 min 3,9 C 5,2 C 7,2 km/h (2 Bft)
17.12.2020 17:30 6,9 C 6,5 C 6,3 C 6,7 C 6,4 C 0,0 C 82 % 85 % 1024,5 hPa 0,0 l/m 5,6 km/h (1 Bft) SW 225 0 min 4,0 C 5,5 C 15,1 km/h (3 Bft)
17.12.2020 17:35 6,9 C 6,5 C 6,3 C 6,6 C 5,9 C 0,0 C 82 % 85 % 1024,5 hPa 0,0 l/m 7,4 km/h (2 Bft) S 180 0 min 4,0 C 4,3 C 12,7 km/h (3 Bft)
17.12.2020 17:40 6,9 C 6,5 C 6,3 C 6,6 C 5,9 C 0,0 C 82 % 85 % 1024,5 hPa 0,0 l/m 7,4 km/h (2 Bft) W 270 0 min 4,0 C 4,3 C 8,4 km/h (2 Bft)
17.12.2020 17:45 6,9 C 6,5 C 6,3 C 6,6 C 5,9 C 0,0 C 82 % 85 % 1024,5 hPa 0,0 l/m 6,4 km/h (2 Bft) O-NO 67 0 min 4,0 C 4,6 C 3,9 km/h (1 Bft)
17.12.2020 17:50 6,9 C 6,5 C 6,3 C 6,6 C 6,1 C 0,0 C 82 % 85 % 1025,2 hPa 0,0 l/m 5,8 km/h (2 Bft) S-SO 157 0 min 4,0 C 5,1 C 5,3 km/h (1 Bft)
17.12.2020 17:55 6,8 C 6,5 C 6,2 C 6,6 C 6,2 C 0,0 C 82 % 85 % 1025,2 hPa 0,0 l/m 5,5 km/h (1 Bft) W-SW 247 0 min 3,9 C 5,3 C 6,8 km/h (2 Bft)
17.12.2020 18:00 6,8 C 6,5 C 6,2 C 6,5 C 5,8 C 0,0 C 82 % 85 % 1025,2 hPa 0,0 l/m 6,8 km/h (2 Bft) S-SW 202 0 min 3,9 C 4,4 C 11,6 km/h (2 Bft)
17.12.2020 18:05 6,8 C 6,6 C 6,2 C 6,5 C 5,8 C 0,0 C 82 % 85 % 1025,2 hPa 0,0 l/m 6,8 km/h (2 Bft) N-NO 22 0 min 3,9 C 4,4 C 4,3 km/h (1 Bft)
17.12.2020 18:10 6,8 C 6,6 C 6,1 C 6,5 C 5,9 C 0,0 C 82 % 85 % 1025,2 hPa 0,0 l/m 5,8 km/h (2 Bft) S 180 0 min 3,9 C 4,8 C 5,0 km/h (1 Bft)
17.12.2020 18:15 6,8 C 6,6 C 6,0 C 6,6 C 6,1 C 0,0 C 82 % 86 % 1025,2 hPa 0,0 l/m 5,1 km/h (1 Bft) SW 225 0 min 3,9 C 5,3 C 5,0 km/h (1 Bft)
17.12.2020 18:20 6,8 C 6,6 C 5,9 C 6,6 C 6,1 C 0,0 C 82 % 86 % 1025,2 hPa 0,0 l/m 5,0 km/h (1 Bft) S 180 0 min 3,9 C 5,3 C 6,1 km/h (2 Bft)
17.12.2020 18:25 6,7 C 6,6 C 5,9 C 6,6 C 6,4 C 0,0 C 82 % 86 % 1025,2 hPa 0,0 l/m 3,7 km/h (1 Bft) SW 225 0 min 3,8 C 6,4 C 3,7 km/h (1 Bft)
17.12.2020 18:30 6,7 C 6,6 C 5,8 C 6,6 C 6,4 C 0,0 C 82 % 86 % 1025,2 hPa 0,0 l/m 3,4 km/h (1 Bft) O 90 0 min 3,8 C 6,4 C 4,0 km/h (1 Bft)
17.12.2020 18:35 6,7 C 6,6 C 5,8 C 6,6 C 6,4 C 0,0 C 82 % 86 % 1025,2 hPa 0,0 l/m 3,1 km/h (1 Bft) SO 135 0 min 3,8 C 6,4 C 2,9 km/h (1 Bft)
17.12.2020 18:40 6,7 C 6,6 C 5,7 C 6,6 C 6,4 C 0,0 C 82 % 87 % 1025,2 hPa 0,0 l/m 2,9 km/h (1 Bft) SW 225 0 min 3,8 C 6,4 C 5,1 km/h (1 Bft)
17.12.2020 18:45 6,5 C 6,6 C 5,8 C 6,5 C 6,4 C 0,0 C 82 % 87 % 1025,2 hPa 0,0 l/m 3,1 km/h (1 Bft) S 180 0 min 3,7 C 6,4 C 3,9 km/h (1 Bft)
17.12.2020 18:50 6,5 C 6,6 C 5,8 C 6,5 C 6,4 C 0,0 C 82 % 87 % 1025,3 hPa 0,0 l/m 2,7 km/h (1 Bft) S 180 0 min 3,7 C 6,4 C 0,0 km/h (0 Bft)
17.12.2020 18:55 6,5 C 6,6 C 5,7 C 6,5 C 6,4 C 0,0 C 82 % 87 % 1025,3 hPa 0,0 l/m 2,1 km/h (1 Bft) SO 135 0 min 3,7 C 6,4 C 3,2 km/h (1 Bft)
17.12.2020 19:00 6,4 C 6,6 C 5,7 C 6,4 C 6,4 C 0,0 C 83 % 87 % 1025,3 hPa 0,0 l/m 1,9 km/h (1 Bft) N-NW 337 0 min 3,7 C 6,4 C 3,1 km/h (1 Bft)
17.12.2020 19:05 6,4 C 6,6 C 5,7 C 6,4 C 6,4 C 0,0 C 83 % 87 % 1025,3 hPa 0,0 l/m 2,1 km/h (1 Bft) SO 135 0 min 3,7 C 6,4 C 4,2 km/h (1 Bft)
17.12.2020 19:10 6,4 C 6,6 C 5,7 C 6,4 C 6,4 C 0,0 C 83 % 87 % 1025,8 hPa 0,0 l/m 1,6 km/h (1 Bft) S-SW 202 0 min 3,7 C 6,4 C 4,2 km/h (1 Bft)
17.12.2020 19:15 6,4 C 6,6 C 5,7 C 6,4 C 6,4 C 0,0 C 83 % 87 % 1025,8 hPa 0,0 l/m 1,3 km/h (1 Bft) SO 135 0 min 3,7 C 6,4 C 0,0 km/h (0 Bft)
17.12.2020 19:20 6,5 C 6,6 C 5,7 C 6,5 C 6,4 C 0,0 C 83 % 87 % 1025,8 hPa 0,0 l/m 2,1 km/h (1 Bft) SW 225 0 min 3,8 C 6,4 C 2,9 km/h (1 Bft)
17.12.2020 19:25 6,4 C 6,6 C 5,7 C 6,4 C 6,3 C 0,0 C 83 % 87 % 1025,8 hPa 0,0 l/m 2,7 km/h (1 Bft) SO 135 0 min 3,7 C 6,3 C 2,9 km/h (1 Bft)
17.12.2020 19:30 6,4 C 6,6 C 5,7 C 6,4 C 6,3 C 0,0 C 83 % 87 % 1025,8 hPa 0,0 l/m 2,7 km/h (1 Bft) SO 135 0 min 3,7 C 6,3 C 8,5 km/h (2 Bft)
17.12.2020 19:35 6,4 C 6,6 C 5,5 C 6,3 C 6,2 C 0,0 C 83 % 87 % 1025,8 hPa 0,0 l/m 2,6 km/h (1 Bft) NO 45 0 min 3,7 C 6,2 C 2,1 km/h (1 Bft)
17.12.2020 19:40 6,3 C 6,6 C 5,4 C 6,2 C 6,0 C 0,0 C 83 % 87 % 1025,8 hPa 0,0 l/m 2,1 km/h (1 Bft) SO 135 0 min 3,6 C 6,0 C 2,3 km/h (1 Bft)
17.12.2020 19:45 6,3 C 6,6 C 5,3 C 6,1 C 5,8 C 0,0 C 83 % 87 % 1025,8 hPa 0,0 l/m 1,4 km/h (1 Bft) S 180 0 min 3,6 C 5,8 C 2,6 km/h (1 Bft)
17.12.2020 19:50 6,1 C 6,8 C 5,2 C 6,0 C 5,7 C 0,0 C 83 % 88 % 1025,6 hPa 0,0 l/m 1,6 km/h (1 Bft) O-SO 112 0 min 3,4 C 5,7 C 4,3 km/h (1 Bft)
17.12.2020 19:55 6,0 C 6,8 C 5,1 C 5,8 C 5,4 C 0,0 C 83 % 88 % 1025,6 hPa 0,0 l/m 1,8 km/h (1 Bft) SW 225 0 min 3,3 C 5,4 C 4,2 km/h (1 Bft)
17.12.2020 20:00 6,1 C 6,8 C 5,0 C 5,9 C 5,4 C 0,0 C 83 % 88 % 1025,6 hPa 0,0 l/m 2,1 km/h (1 Bft) S 180 0 min 3,4 C 5,4 C 4,3 km/h (1 Bft)
17.12.2020 20:05 5,9 C 6,8 C 5,0 C 5,7 C 5,2 C 0,0 C 84 % 88 % 1025,6 hPa 0,0 l/m 2,3 km/h (1 Bft) S-SO 157 0 min 3,4 C 5,2 C 4,5 km/h (1 Bft)
17.12.2020 20:10 5,9 C 6,8 C 5,0 C 5,7 C 5,2 C 0,0 C 84 % 88 % 1025,6 hPa 0,0 l/m 2,1 km/h (1 Bft) O-SO 112 0 min 3,4 C 5,2 C 2,6 km/h (1 Bft)
17.12.2020 20:15 5,8 C 6,8 C 4,9 C 5,6 C 5,2 C 0,0 C 84 % 89 % 1025,6 hPa 0,0 l/m 2,6 km/h (1 Bft) S-SO 157 0 min 3,3 C 5,2 C 4,8 km/h (1 Bft)
17.12.2020 20:20 5,9 C 6,8 C 4,8 C 5,6 C 5,1 C 0,0 C 84 % 88 % 1025,6 hPa 0,0 l/m 2,1 km/h (1 Bft) W-SW 247 0 min 3,4 C 5,1 C 2,3 km/h (1 Bft)
17.12.2020 20:25 5,7 C 6,8 C 4,7 C 5,5 C 5,0 C 0,0 C 84 % 88 % 1025,6 hPa 0,0 l/m 2,6 km/h (1 Bft) O-SO 112 0 min 3,2 C 5,0 C 6,1 km/h (2 Bft)
17.12.2020 20:30 5,8 C 6,8 C 4,7 C 5,5 C 4,9 C 0,0 C 84 % 89 % 1026,0 hPa 0,0 l/m 3,2 km/h (1 Bft) SO 135 0 min 3,3 C 4,9 C 6,4 km/h (2 Bft)
17.12.2020 20:35 5,6 C 6,8 C 4,7 C 5,3 C 4,8 C 0,0 C 84 % 89 % 1026,0 hPa 0,0 l/m 2,6 km/h (1 Bft) SO 135 0 min 3,1 C 4,8 C 2,9 km/h (1 Bft)
17.12.2020 20:40 5,6 C 6,8 C 4,6 C 5,3 C 4,7 C 0,0 C 84 % 89 % 1026,0 hPa 0,0 l/m 2,6 km/h (1 Bft) S-SO 157 0 min 3,1 C 4,7 C 5,0 km/h (1 Bft)
17.12.2020 20:45 5,7 C 6,8 C 4,6 C 5,3 C 4,6 C 0,0 C 84 % 89 % 1026,0 hPa 0,0 l/m 3,2 km/h (1 Bft) S-SO 157 0 min 3,2 C 4,6 C 2,1 km/h (1 Bft)
17.12.2020 20:50 5,6 C 6,8 C 4,5 C 5,3 C 4,7 C 0,0 C 84 % 89 % 1026,2 hPa 0,0 l/m 3,1 km/h (1 Bft) NO 45 0 min 3,1 C 4,7 C 6,9 km/h (2 Bft)
17.12.2020 20:55 5,5 C 6,8 C 4,5 C 5,2 C 4,6 C 0,0 C 85 % 89 % 1026,2 hPa 0,0 l/m 2,1 km/h (1 Bft) S-SW 202 0 min 3,2 C 4,6 C 3,2 km/h (1 Bft)
17.12.2020 21:00 5,5 C 6,8 C 4,4 C 5,2 C 4,5 C 0,0 C 85 % 90 % 1026,2 hPa 0,0 l/m 2,3 km/h (1 Bft) SO 135 0 min 3,2 C 4,5 C 3,2 km/h (1 Bft)
17.12.2020 21:05 5,5 C 6,8 C 4,3 C 5,1 C 4,4 C 0,0 C 85 % 89 % 1026,2 hPa 0,0 l/m 2,3 km/h (1 Bft) S-SO 157 0 min 3,2 C 4,4 C 0,0 km/h (0 Bft)
17.12.2020 21:10 5,4 C 6,8 C 4,3 C 5,0 C 4,3 C 0,0 C 85 % 90 % 1026,4 hPa 0,0 l/m 2,3 km/h (1 Bft) S-SO 157 0 min 3,1 C 4,3 C 3,5 km/h (1 Bft)
17.12.2020 21:15 5,3 C 6,8 C 4,1 C 4,9 C 4,2 C 0,0 C 85 % 90 % 1026,4 hPa 0,0 l/m 1,8 km/h (1 Bft) S-SO 157 0 min 3,0 C 4,2 C 3,1 km/h (1 Bft)
17.12.2020 21:20 5,2 C 6,8 C 4,1 C 4,9 C 4,2 C 0,0 C 85 % 90 % 1026,4 hPa 0,0 l/m 1,0 km/h (0 Bft) SO 135 0 min 2,9 C 4,2 C 0,0 km/h (0 Bft)
17.12.2020 21:25 5,2 C 6,9 C 3,8 C 4,8 C 3,9 C 0,0 C 85 % 90 % 1026,4 hPa 0,0 l/m 0,3 km/h (0 Bft) W-SW 247 0 min 2,9 C 3,9 C 0,0 km/h (0 Bft)
17.12.2020 21:30 5,1 C 6,9 C 3,5 C 4,6 C 3,7 C 0,0 C 85 % 90 % 1026,8 hPa 0,0 l/m 0,0 km/h (0 Bft) W-SW 247 0 min 2,8 C 3,7 C 0,0 km/h (0 Bft)
17.12.2020 21:35 4,8 C 6,9 C 3,1 C 4,3 C 3,4 C 0,0 C 85 % 89 % 1026,8 hPa 0,0 l/m 0,0 km/h (0 Bft) W-SW 247 0 min 2,5 C 3,4 C 0,0 km/h (0 Bft)
17.12.2020 21:40 4,8 C 6,9 C 3,0 C 4,3 C 3,3 C 0,0 C 85 % 89 % 1026,8 hPa 0,0 l/m 0,2 km/h (0 Bft) SO 135 0 min 2,5 C 3,3 C 0,0 km/h (0 Bft)
17.12.2020 21:45 4,7 C 6,9 C 2,8 C 4,2 C 3,2 C 0,0 C 85 % 90 % 1026,8 hPa 0,0 l/m 0,3 km/h (0 Bft) O-SO 112 0 min 2,4 C 3,2 C 0,0 km/h (0 Bft)
17.12.2020 21:50 4,7 C 6,9 C 3,0 C 4,2 C 3,3 C 0,0 C 86 % 91 % 1026,5 hPa 0,0 l/m 0,8 km/h (0 Bft) S-SO 157 0 min 2,6 C 3,3 C 0,0 km/h (0 Bft)
17.12.2020 21:55 4,7 C 6,9 C 3,0 C 4,3 C 3,4 C 0,0 C 86 % 91 % 1026,5 hPa 0,0 l/m 1,0 km/h (0 Bft) S-SO 157 0 min 2,6 C 3,4 C 0,0 km/h (0 Bft)
17.12.2020 22:00 4,7 C 6,9 C 2,9 C 4,3 C 3,4 C 0,0 C 86 % 91 % 1026,5 hPa 0,0 l/m 0,6 km/h (0 Bft) SO 135 0 min 2,6 C 3,4 C 4,5 km/h (1 Bft)
17.12.2020 22:05 4,7 C 6,9 C 2,9 C 4,3 C 3,4 C 0,0 C 86 % 91 % 1026,5 hPa 0,0 l/m 1,4 km/h (1 Bft) SO 135 0 min 2,6 C 3,4 C 4,5 km/h (1 Bft)
17.12.2020 22:10 4,7 C 6,9 C 3,2 C 4,3 C 3,6 C 0,0 C 86 % 91 % 1026,1 hPa 0,0 l/m 2,6 km/h (1 Bft) S-SO 157 0 min 2,6 C 3,6 C 3,5 km/h (1 Bft)
17.12.2020 22:15 4,8 C 6,9 C 3,2 C 4,4 C 3,7 C 0,0 C 86 % 91 % 1026,1 hPa 0,0 l/m 2,6 km/h (1 Bft) S-SO 157 0 min 2,7 C 3,7 C 3,7 km/h (1 Bft)
17.12.2020 22:20 4,8 C 6,9 C 3,0 C 4,4 C 3,6 C 0,0 C 86 % 91 % 1026,1 hPa 0,0 l/m 1,6 km/h (1 Bft) S-SO 157 0 min 2,7 C 3,6 C 4,5 km/h (1 Bft)
17.12.2020 22:25 4,6 C 6,9 C 2,9 C 4,3 C 3,6 C 0,0 C 86 % 91 % 1026,1 hPa 0,0 l/m 0,8 km/h (0 Bft) S-SO 157 0 min 2,5 C 3,6 C 4,2 km/h (1 Bft)
17.12.2020 22:30 4,7 C 6,9 C 2,9 C 4,3 C 3,5 C 0,0 C 86 % 91 % 1026,4 hPa 0,0 l/m 1,0 km/h (0 Bft) SO 135 0 min 2,6 C 3,5 C 0,0 km/h (0 Bft)
17.12.2020 22:35 4,5 C 6,9 C 3,0 C 4,1 C 3,4 C 0,0 C 86 % 91 % 1026,4 hPa 0,0 l/m 1,0 km/h (0 Bft) S-SO 157 0 min 2,4 C 3,4 C 0,0 km/h (0 Bft)
17.12.2020 22:40 4,5 C 6,9 C 3,0 C 4,1 C 3,3 C 0,0 C 86 % 91 % 1026,4 hPa 0,0 l/m 0,6 km/h (0 Bft) SW 225 0 min 2,4 C 3,3 C 0,0 km/h (0 Bft)
17.12.2020 22:45 4,5 C 6,9 C 2,9 C 4,0 C 3,1 C 0,0 C 86 % 91 % 1026,4 hPa 0,0 l/m 0,8 km/h (0 Bft) S-SW 202 0 min 2,4 C 3,1 C 2,6 km/h (1 Bft)
17.12.2020 22:50 4,5 C 6,9 C 2,7 C 4,1 C 3,2 C 0,0 C 87 % 91 % 1026,3 hPa 0,0 l/m 0,8 km/h (0 Bft) S-SO 157 0 min 2,5 C 3,2 C 1,8 km/h (1 Bft)
17.12.2020 22:55 4,3 C 6,9 C 2,4 C 3,9 C 3,1 C 0,0 C 86 % 91 % 1026,3 hPa 0,0 l/m 0,3 km/h (0 Bft) S 180 0 min 2,2 C 3,1 C 0,0 km/h (0 Bft)
17.12.2020 23:00 4,2 C 6,9 C 2,3 C 3,8 C 3,0 C 0,0 C 86 % 91 % 1026,3 hPa 0,0 l/m 0,2 km/h (0 Bft) S-SO 157 0 min 2,1 C 3,0 C 0,0 km/h (0 Bft)
17.12.2020 23:05 4,1 C 6,9 C 2,5 C 3,7 C 2,9 C 0,0 C 87 % 91 % 1026,3 hPa 0,0 l/m 0,0 km/h (0 Bft) SO 135 0 min 2,1 C 2,9 C 0,0 km/h (0 Bft)
17.12.2020 23:10 4,1 C 6,9 C 2,5 C 3,7 C 2,9 C 0,0 C 87 % 91 % 1025,9 hPa 0,0 l/m 0,0 km/h (0 Bft) SO 135 0 min 2,1 C 2,9 C 0,0 km/h (0 Bft)
17.12.2020 23:15 4,0 C 6,9 C 2,4 C 3,7 C 3,1 C 0,0 C 87 % 91 % 1025,9 hPa 0,0 l/m 0,0 km/h (0 Bft) O-SO 112 0 min 2,0 C 3,1 C 0,0 km/h (0 Bft)
17.12.2020 23:20 4,0 C 6,9 C 2,4 C 3,7 C 3,2 C 0,0 C 87 % 91 % 1025,9 hPa 0,0 l/m 0,0 km/h (0 Bft) SO 135 0 min 2,0 C 3,2 C 0,0 km/h (0 Bft)
17.12.2020 23:25 4,0 C 6,9 C 2,7 C 3,8 C 3,4 C 0,0 C 87 % 92 % 1025,9 hPa 0,0 l/m 0,2 km/h (0 Bft) SO 135 0 min 2,0 C 3,4 C 0,0 km/h (0 Bft)
17.12.2020 23:30 4,0 C 6,9 C 2,7 C 3,8 C 3,4 C 0,0 C 87 % 92 % 1026,6 hPa 0,0 l/m 0,3 km/h (0 Bft) S 180 0 min 2,0 C 3,4 C 2,4 km/h (1 Bft)
17.12.2020 23:35 4,0 C 6,8 C 2,7 C 3,8 C 3,4 C 0,0 C 87 % 92 % 1026,6 hPa 0,0 l/m 0,5 km/h (0 Bft) S-SO 157 0 min 2,0 C 3,4 C 0,0 km/h (0 Bft)
17.12.2020 23:40 4,0 C 6,8 C 2,7 C 3,8 C 3,4 C 0,0 C 87 % 92 % 1026,6 hPa 0,0 l/m 1,0 km/h (0 Bft) S-SO 157 0 min 2,0 C 3,4 C 2,4 km/h (1 Bft)
17.12.2020 23:45 4,0 C 6,8 C 2,7 C 3,8 C 3,4 C 0,0 C 87 % 92 % 1026,6 hPa 0,0 l/m 1,6 km/h (1 Bft) SO 135 0 min 2,0 C 3,4 C 6,1 km/h (2 Bft)
17.12.2020 23:50 4,0 C 6,8 C 2,6 C 3,8 C 3,4 C 0,0 C 87 % 92 % 1027,1 hPa 0,0 l/m 1,8 km/h (1 Bft) NO 45 0 min 2,0 C 3,4 C 0,0 km/h (0 Bft)
17.12.2020 23:55 4,0 C 6,8 C 2,7 C 3,8 C 3,3 C 0,0 C 88 % 92 % 1027,1 hPa 0,0 l/m 1,8 km/h (1 Bft) S-SW 202 0 min 2,2 C 3,3 C 0,0 km/h (0 Bft)
_ Min-Zeit 07:35 13:00 06:50 06:55 06:25 00:00 14:30 13:55 00:50 - 00:00 - - - 07:35 06:25 00:00
Minimum _ -0,1 C 6,0 C -0,6 C -0,1 C -0,6 C 0,0 C 76 % 81 % 1021,6 hPa - 0,0 km/h (0 Bft) - - - -1,8 C -0,6 C 0,0 km/h (0 Bft)
_ Max-Zeit 14:10 00:05 14:05 13:55 13:55 10:30 10:35 05:20 23:50 00:00 16:45 - - 08:25 14:10 13:55 15:15
Maximum _ 8,8 C 7,1 C 7,9 C 10,6 C 10,6 C 3,2 C 89 % 93 % 1027,1 hPa 0,0 l/m 8,2 km/h
SW (2 Bft)
- - 5 min 5,0 C 10,6 C 17,5 km/h
S (3 Bft)
Durchschnitt _ 4,4 C 6,6 C 3,7 C 4,7 C 4,3 C 0,5 C 84 % 89 % 1023,4 hPa #0,0 l/m 1,9 km/h (1 Bft) S - #45 min. 2,0 C 4,1 C 2,7 km/h (1 Bft)
2020 www.wetterstation-wechselburg.de